FW2545 Weather Reports


Display with metric or nautical units.
time (UTC)temp
F
wind
direction
speed
MPH
gust
MPH
rain 1hr
in
rain 24hr
in
rain mn
in
humidity
%
barometer
mb
20260902110030 47 201 0.0 2.0 0.00 0.00 0.00 89 1012.9
20260902104531 48 183 0.0 3.0 0.00 0.00 0.00 89 1012.8
20260902103034 49 186 0.0 2.0 0.00 0.00 0.00 88 1012.6
20260902101535 49 254 0.0 3.0 0.00 0.00 0.00 88 1012.8
20260902094532 50 175 1.0 4.0 0.00 0.00 0.00 87 1013.0
20260902093031 50 165 2.0 5.0 0.00 0.00 0.00 87 1013.0
20260902084531 51 216 1.0 4.0 0.00 0.00 0.00 85 1013.0
20260902083043 51 273 0.0 3.0 0.00 0.00 0.00 85 1013.0
20260902081531 52 309 1.0 4.0 0.00 0.00 0.00 83 1013.0
20260902080032 52 300 0.0 2.0 0.00 0.00 0.00 82 1013.1
20260902074534 53 287 1.0 4.0 0.00 0.00 0.00 81 1013.2
20260902073036 55 277 1.0 5.0 0.00 0.00 0.00 81 1013.3
20260902071536 55 244 2.0 8.0 0.00 0.00 0.00 81 1013.3
20260902070143 55 328 2.0 8.0 0.00 0.00 0.00 80 1013.3
20260902064537 56 275 0.0 3.0 0.00 0.00 0.00 78 1013.5
20260902063035 56 342 2.0 8.0 0.00 0.00 0.00 77 1013.1
20260902061541 57 208 1.0 5.0 0.00 0.00 0.00 76 1013.5
20260902054530 58 324 2.0 6.0 0.00 0.00 0.00 75 1013.6
20260902051535 58 322 3.0 8.0 0.00 0.00 0.00 75 1013.2
20260902050035 57 317 4.0 9.0 0.00 0.00 0.00 74 1012.9
20260902041531 61 323 3.0 11.0 0.00 0.00 0.00 66 1012.5
20260902040034 62 292 5.0 16.0 0.00 0.00 0.00 63 1012.3
20260902034642 62 303 6.0 12.0 0.00 0.00 0.00 62 1012.1
20260902031531 63 290 8.0 19.0 0.00 0.00 0.00 59 1011.5
20260902030030 63 287 8.0 18.0 0.00 0.00 0.00 59 1011.5
20260902023035 64 294 8.0 23.0 0.00 0.00 0.00 58 1011.6
20260902021538 64 299 6.0 15.0 0.00 0.00 0.00 57 1011.4
20260902020034 64 294 7.0 16.0 0.00 0.00 0.00 58 1011.2
20260902013037 66 326 4.0 11.0 0.00 0.00 0.00 58 1011.1
20260902011530 66 307 6.0 15.0 0.00 0.00 0.00 58 1010.8
20260902010035 67 300 7.0 16.0 0.00 0.00 0.00 57 1010.4
20260902004610 68 297 8.0 25.0 0.00 0.00 0.00 56 1010.2
20260902003029 67 297 7.0 20.0 0.00 0.00 0.00 57 1010.3
20260902001533 68 308 7.0 16.0 0.00 0.00 0.00 56 1010.4
20260902000032 69 320 7.0 16.0 0.00 0.00 0.00 55 1010.4
20260901234610 69 302 10.0 20.0 0.00 0.00 0.00 55 1010.2
20260901233036 68 308 8.0 19.0 0.00 0.00 0.00 56 1010.5
20260901230032 69 307 7.0 16.0 0.00 0.00 0.00 53 1010.6
20260901224538 71 305 8.0 17.0 0.00 0.00 0.00 51 1010.5
20260901223035 74 303 9.0 20.0 0.00 0.00 0.00 48 1010.3
20260901221535 76 299 8.0 18.0 0.00 0.00 0.00 47 1010.3
20260901213035 76 322 9.0 18.0 0.00 0.00 0.00 48 1010.4
20260901211532 75 322 8.0 19.0 0.00 0.00 0.00 48 1010.4
20260901210035 74 326 7.0 18.0 0.00 0.00 0.00 50 1010.5
20260901204533 74 329 7.0 19.0 0.00 0.00 0.00 50 1010.6
20260901203033 74 326 6.0 14.0 0.00 0.00 0.00 50 1010.9
20260901201530 74 336 5.0 13.0 0.00 0.00 0.00 51 1011.0
20260901200032 73 338 5.0 13.0 0.00 0.00 0.00 53 1011.2
20260901193108 72 345 4.0 10.0 0.00 0.00 0.00 54 1011.6
20260901191537 72 346 3.0 10.0 0.00 0.00 0.00 56 1011.8
20260901190035 71 357 3.0 8.0 0.00 0.00 0.00 57 1012.0
20260901184537 69 348 3.0 11.0 0.00 0.00 0.00 60 1012.1
20260901183107 68 354 4.0 11.0 0.00 0.00 0.00 61 1012.2
20260901181532 67 332 3.0 9.0 0.00 0.00 0.00 62 1012.3
20260901180029 66 294 4.0 11.0 0.00 0.00 0.00 64 1012.3
20260901174536 66 333 4.0 9.0 0.00 0.00 0.00 65 1012.2
20260901171641 63 329 4.0 10.0 0.00 0.00 0.00 68 1012.2
20260901170143 63 329 4.0 10.0 0.00 0.00 0.00 68 1012.2
20260901163036 61 336 3.0 7.0 0.00 0.00 0.00 71 1012.3
20260901161532 58 22 1.0 6.0 0.00 0.00 0.00 72 1012.3
20260901160044 56 120 0.0 4.0 0.00 0.00 0.00 71 1012.3
20260901154530 55 164 0.0 2.0 0.00 0.00 0.00 71 1012.2
20260901153036 53 292 0.0 0.0 0.00 0.00 0.00 72 1012.1
20260901144555 49 292 0.0 0.0 0.00 0.00 0.00 74 1011.8
20260901143032 49 281 0.0 2.0 0.00 0.00 0.00 74 1011.7
20260901141536 48 209 0.0 3.0 0.00 0.00 0.00 75 1011.7
20260901140037 47 208 0.0 3.0 0.00 0.00 0.00 74 1011.5
20260901134532 49 180 0.0 1.0 0.00 0.00 0.00 70 1011.2
20260901124530 50 202 0.0 3.0 0.00 0.00 0.00 69 1011.0
20260901123031 49 202 1.0 4.0 0.00 0.00 0.00 68 1010.9
20260901120034 49 222 0.0 3.0 0.00 0.00 0.00 67 1011.0
20260901114531 49 218 0.0 2.0 0.00 0.00 0.00 65 1011.1
20260901113030 49 238 1.0 4.0 0.00 0.00 0.00 65 1011.0
20260901111531 49 247 1.0 2.0 0.00 0.00 0.00 65 1010.9